Regional Weather Roundup
Issued by NWS

Home | Current Version | Previous Version | Graphics & Text | Print | Product List | Glossary On
Versions: 1 2 3 4 5 6 7 8 9 10 11 12 13 14 15 16 17 18 19 20 21 22 23 24 25 26 27 28 29 30 31 32 33 34 35 36 37 38 39 40 41 42 43 44 45 46 47 48 49 50
000
ASUS43 KMKX 251521
RWRWI

WISCONSIN REGIONAL WEATHER ROUNDUP
NATIONAL WEATHER SERVICE MILWAUKEE/SULLIVAN WI
1000 AM CDT THU AUG 25 2016

NOTE: "FAIR" INDICATES FEW OR NO CLOUDS BELOW 12,000 FEET WITH NO
SIGNIFICANT WEATHER AND/OR OBSTRUCTIONS TO VISIBILITY.

WIZ001-002-006>008-014>016-023>028-251600-
NORTHWEST WISCONSIN

CITY           SKY/WX    TMP DP  RH WIND       PRES   REMARKS
SUPERIOR ARPT  MOSUNNY   68  56  64 W10G16    29.94S
ASHLAND        SUNNY     70  57  63 SW12      29.94F
HAYWARD        SUNNY     68  56  65 W8        29.98F
SIREN          SUNNY     68  54  61 W10G16    29.99S
CUMBERLAND     SUNNY     68  55  64 W12       30.00R
RICE LAKE      SUNNY     70  59  68 SW6       30.01S
CHETEK         NOT AVBL
LADYSMITH      SUNNY     70  60  70 SW6       30.01F
EAU CLAIRE     SUNNY     72  60  66 SW9       30.00F
MENOMONIE      SUNNY     74  59  60 SW9       30.01R
NEW RICHMOND   SUNNY     69  59  70 W13       30.02R
OSCEOLA        SUNNY     68  58  70 W8        30.04R
$$

WIZ003>005-009-010-017-018-251600-
NORTH CENTRAL WISCONSIN

CITY           SKY/WX    TMP DP  RH WIND       PRES   REMARKS
MANITOWISH WTR NOT AVBL
ARBOR VITAE    SUNNY     69  58  66 W7G16     29.99F
WOODRUFF       SUNNY     69  58  66 W7G16     29.99F
RHINELANDER    SUNNY     70  58  65 W9        30.00S
EAGLE RIVER    SUNNY     68  54  59 W14       29.98F
LAND O LAKES   SUNNY     68  53  58 W8G16     29.99S
PHILLIPS       SUNNY     68  58  68 SW6       29.99F
TOMAHAWK       SUNNY     69  56  64 W7        30.01S
MEDFORD        SUNNY     67  60  76 W6        30.01S
MERRILL        SUNNY     70  59  68 W7        30.02R
$$

WIZ029-030-035-036-043>047-251600-
CENTRAL WISCONSIN

CITY           SKY/WX    TMP DP  RH WIND       PRES   REMARKS
WAUSAU         SUNNY     70  59  68 NW7       30.00S
MOSINEE        NOT AVBL
MARSHFIELD     SUNNY     71  59  65 W8        30.02S
STEVENS POINT  MOSUNNY   66  57  72 CALM      30.03S
WAUPACA        PTSUNNY   75  60  59 W7        30.02R
WAUTOMA        CLOUDY    70  61  73 CALM      30.03S
WISC RAPIDS    MOSUNNY   68  61  78 W5        30.04R
CAMP DOUGLAS   PTSUNNY   68  63  83 W3        30.04R
$$

WIZ011>013-019>022-031-037>040-048>050-251600-
NORTHEAST WISCONSIN

CITY           SKY/WX    TMP DP  RH WIND       PRES   REMARKS
ANTIGO         SUNNY     67  58  72 NW7       30.02S
SHAWANO        MOSUNNY   73  60  65 W5        30.00S
OCONTO         NOT AVBL
STURGEON BAY   CLOUDY    69  60  73 NW7       29.99R
GREEN BAY      MOSUNNY   70  63  78 NW5       30.00R
MANITOWOC      CLOUDY    72  60  66 NW9       29.99R
APPLETON       PTSUNNY   68  57  68 NW6       30.00R
CLINTONVILLE   MOSUNNY   72  57  60 NW6       30.01R
OSHKOSH        CLOUDY    70  61  73 NW6       30.01R
$$

WIZ032>034-041-042-053>061-251600-
SOUTHWEST WISCONSIN

CITY           SKY/WX    TMP DP  RH WIND       PRES   REMARKS
LA CROSSE      SUNNY     72 N/A N/A SE3       30.04R
SPARTA         CLOUDY    67  62  84 CALM      30.05R
VIROQUA        SUNNY     71  60  69 NW3       30.07S
BOSCOBEL       SUNNY     75  62  64 CALM      30.06R
PRAIRIE DU CHI CLOUDY    70  59  67 CALM      30.06R
PLATTEVILLE    SUNNY     72  64  77 N6        30.06R
$$

WIZ056-057-062-063-064-067-068-251600-
SOUTH CENTRAL WISCONSIN

CITY           SKY/WX    TMP DP  RH WIND       PRES   REMARKS
REEDSBURG      NOT AVBL
BARABOO/DELLS  SUNNY     70  57  63 CALM      30.04S
LONE ROCK      SUNNY     73  61  65 VRB3      30.05R
MINERAL POINT  SUNNY     73  61  64 N6        30.06R
MADISON        MOSUNNY   73  62  68 N5        30.03R
MIDDLETON      MOSUNNY   74  61  63 NW6       30.04S
WATERTOWN      MOSUNNY   70  63  78 NW6       30.02S
MONROE         SUNNY     73  61  64 N5        30.05R
JANESVILLE     NOT AVBL
$$

WIZ051-052-058>065-066-070>072-251600-
SOUTHEAST WISCONSIN

CITY           SKY/WX    TMP DP  RH WIND       PRES   REMARKS
MILWAUKEE      CLOUDY    75  65  70 NW9       30.00R
WAUKESHA       NOT AVBL
MILWAUKEE/TIMM SUNNY     70  59  68 NW8       30.01R
RACINE         CLOUDY    75  67  76 NW7       30.02R
BURLINGTON     SUNNY     71  63  76 CALM      30.02R
KENOSHA        PTSUNNY   74  68  81 W6        30.01R
FOND DU LAC    MOSUNNY   71  61  70 NW6       30.02R
SHEBOYGAN      MOSUNNY   72  61  68 NW8       29.99S
WEST BEND      MOSUNNY   72  61  68 NW7       30.01S
JUNEAU         MOSUNNY   69  61  74 NW6       30.04R
$$

LSZ147-162-251600-
LAKE SUPERIOR

STATION/POSITION TIME  TEMP    WIND        PRES    WAVE
                       AIR SEA DIR/SP/G            HT/PER
                 (UTC) (F)     (DEG/KT/KT) (MB)    (FT/S)
W MID LAKE BUOY  1450   67 68  250/ 16/ 19 1011.5S   3/ 4
DEVILS ISLAND    1500   65     240/ 18/ 20 1012.8F
PORT WING        1400   66     250/  9/ 13 1013.9F
SAXON HARBOR     1400   67     210/  5/ 10 1013.9S
$$

LMZ867-665-643>646-251600-
LAKE MICHIGAN

STATION/POSITION TIME  TEMP    WIND        PRES    WAVE
                       AIR SEA DIR/SP/G            HT/PER
                 (UTC) (F)     (DEG/KT/KT) (MB)    (FT/S)
CHAMBERS ISLAND  1440   69     260/  4/  8 1014.6R
S GREEN BAY BUOY 1500   69 72  280/  8/ 10 1014.7
N MID LAKE BUOY  1450   68 70  270/ 12/ 14 1013.2R   2/ 6
NORTHPORT PIER   1400   70     290/  3/  9 1014.2R
SISTER BAY       1422   69     300/ 10/ 11   N/A
KEWAUNEE LAKESHO 1500   70     300/  7/  9 1014.8R
SHEBOYGAN LAKESH 1500   71     320/  6/  7 1014.8R
PORT WASHINGTON  1400   71     310/  9/ 13 1015.9R
ATWATER BUOY     1500   66 51  300/  2/  4   N/A
MILWAUKEE LAKESH 1510   72     320/  4/  5   N/A
S MID LAKE BUOY  1450   73 74  340/ 10/ 12 1014.5R   1
KENOSHA   LAKESH 1500   73     300/  6/ 10 1015.9R
$$

TC  - TEMPERATURE IN CELSIUS
VSB - VISIBILITY IN STATUTE MILES
WCI - WIND CHILL INDEX
HX  - HEAT INDEX





USA.gov is the U.S. government's official web portal to all federal, state and local government web resources and services.